Location: Unspecified
(0.0000°N, 0.0000°E)
Time: 07:16:46
(UTC+00:00)

JUGNU - Visible Passes

Search period start: 17 February 2020 00:00
Search period end: 27 February 2020 00:00
Orbit: 836 x 864 km, 20.0° (Epoch: 17 February)

Date Brightness Start Highest point End Pass type
(mag) Time Alt. Az. Time Alt. Az. Time Alt. Az.
17 Feb ? 19:01:13 10° NNW 19:05:39 22° NNE 19:08:32 16° NE visible
17 Feb ? 20:49:10 10° WNW 20:50:24 17° NW 20:50:24 17° NW visible
18 Feb ? 04:12:39 10° S 04:13:14 10° S 04:13:50 10° S visible
18 Feb ? 18:45:53 10° NW 18:50:33 24° NNE 18:54:42 12° ENE visible
18 Feb ? 20:33:57 10° WNW 20:36:34 27° NW 20:36:34 27° NW visible
19 Feb ? 03:57:16 10° S 03:58:12 10° S 03:59:15 10° SSE visible
19 Feb ? 05:44:15 10° SSW 05:48:12 18° SSE 05:52:09 10° SE visible
19 Feb ? 18:30:34 10° NW 18:35:25 27° NNE 18:40:16 10° ENE visible
19 Feb ? 20:18:45 10° WNW 20:22:47 45° NW 20:22:47 45° NW visible
20 Feb ? 03:43:15 11° S 03:43:15 11° S 03:44:36 10° SSE visible
20 Feb ? 05:28:54 10° SSW 05:33:06 19° SSE 05:37:18 10° ESE visible
20 Feb ? 20:03:34 10° WNW 20:09:01 75° NNW 20:09:01 75° NNW visible
21 Feb ? 03:29:18 11° SSE 03:29:18 11° SSE 03:29:55 10° SSE visible
21 Feb ? 05:13:34 10° SSW 05:17:59 21° SSE 05:22:26 10° ESE visible
21 Feb ? 19:48:23 10° WNW 19:54:15 89° NNE 19:55:17 63° ESE visible
22 Feb ? 04:58:14 10° SW 05:02:53 23° SSE 05:07:32 10° ESE visible
22 Feb ? 19:33:15 10° WNW 19:39:06 81° SSW 19:41:32 37° ESE visible
22 Feb ? 21:23:08 10° WSW 21:23:25 11° WSW 21:23:25 11° WSW visible
23 Feb ? 04:43:25 12° SSW 04:47:45 25° SSE 04:52:36 10° ESE visible
23 Feb ? 19:18:05 10° WNW 19:23:56 73° SSW 19:27:47 22° ESE visible
23 Feb ? 21:08:12 10° WSW 21:09:40 16° WSW 21:09:40 16° WSW visible
24 Feb ? 04:29:36 18° SSW 04:32:38 28° SSE 04:37:40 10° ESE visible
24 Feb ? 19:02:58 10° WNW 19:08:47 64° SSW 19:14:01 13° ESE visible
24 Feb ? 20:53:16 10° WSW 20:55:53 20° SW 20:55:53 20° SW visible
25 Feb ? 04:15:50 26° S 04:17:30 30° SSE 04:22:41 10° E visible
25 Feb ? 18:47:52 10° W 18:53:38 57° SSW 18:59:22 10° ESE visible
25 Feb ? 20:38:22 10° WSW 20:42:05 22° SSW 20:42:05 22° SSW visible
26 Feb ? 04:02:06 33° SSE 04:02:21 34° SSE 04:07:42 10° E visible
26 Feb ? 05:45:29 10° WSW 05:51:28 90° NNW 05:57:28 10° ENE visible
26 Feb ? 18:32:47 10° W 18:38:28 51° SSW 18:44:09 10° SE visible
26 Feb ? 20:23:29 10° WSW 20:27:45 21° SSW 20:28:13 20° S visible
